Weather History for Clinton, IA

Change the Weather History Date:

Sunday, December 30, 2012

  Actual Average Record
Temperature  
Mean Temperature 20 °F -  
Max Temperature 35 °F 30 °F 59 °F (2002)
Min Temperature 5 °F 14 °F -11 °F (1963)
Degree Days  
Heating Degree Days 45    
Moisture  
Dew Point 13 °F    
Average Humidity 75    
Maximum Humidity 92    
Minimum Humidity 56    
Precipitation  
Precipitation 0.00 in - - ()
Sea Level Pressure  
Sea Level Pressure 30.23 in    
Wind  
Wind Speed 5 mph (SSW)    
Max Wind Speed 22 mph    
Max Gust Speed 26 mph    
Visibility 7 miles    
Events      
Averages and records for this station are not official NWS values.
T = Trace of Precipitation, MM = Missing Value Source: NWS Daily Summary

Daily Weather History Graph

Daily Weather History Graph

Search for Another Location

Airport:

Trip Planner

Search our weather history database for the weather conditions in past years. The results will help you decide how hot, cold, wet, or windy it might be!

Date:

Astronomy

Dec. 30, 2012 Rise Set
Actual Time 7:28 AM CST 4:39 PM CST
Civil Twilight 6:57 AM CST 5:11 PM CST
Nautical Twilight 6:22 AM CST 5:46 PM CST
Astronomical Twilight 5:48 AM CST 6:20 PM CST
Moon 7:13 PM CST (12/30) 8:35 AM CST (12/30)
Length of Visible Light 10h 14m
Length of Day
9h 11m
Waning Gibbous, 95% of the Moon is Illuminated
Dec 30
Waning Gibbous
Jan 4
Last Quarter
Jan 11
New
Jan 18
First Quarter
Jan 26
Full

Hourly Weather History & Observations

Time (CST) Temp. Windchill Dew Point Humidity Pressure Visibility Wind Dir Wind Speed Gust Speed Precip Events Conditions
12:15 AM 8.6 °F 2.0 °F 3.2 °F 79% 30.26 in 5.0 mi West 3.5 mph - N/A   Clear
12:55 AM 8.6 °F -1.3 °F 3.2 °F 79% 30.26 in 5.0 mi WSW 5.8 mph - N/A   Clear
1:15 AM 8.6 °F - 6.8 °F 92% 30.26 in 4.0 mi Calm Calm - N/A   Clear
1:35 AM 8.6 °F 2.0 °F 5.0 °F 85% 30.26 in 4.0 mi WSW 3.5 mph - N/A   Clear
1:55 AM 8.6 °F 2.0 °F 5.0 °F 85% 30.27 in 4.0 mi WSW 3.5 mph - N/A   Clear
2:15 AM 6.8 °F - 3.2 °F 85% 30.27 in 4.0 mi Calm Calm - N/A   Clear
2:35 AM 8.6 °F 2.0 °F 5.0 °F 85% 30.29 in 3.0 mi WSW 3.5 mph - N/A   Clear
2:55 AM 6.8 °F -2.0 °F 1.4 °F 79% 30.29 in 4.0 mi WSW 4.6 mph - N/A   Clear
3:15 AM 6.8 °F - 1.4 °F 79% 30.29 in 4.0 mi Calm Calm - N/A   Clear
3:35 AM 8.6 °F - 5.0 °F 85% 30.30 in 4.0 mi Calm Calm - N/A   Clear
3:55 AM 8.6 °F - 5.0 °F 85% 30.31 in 4.0 mi Calm Calm - N/A   Clear
4:15 AM 6.8 °F - 1.4 °F 79% 30.30 in 5.0 mi Calm Calm - N/A   Clear
4:35 AM 6.8 °F - 3.2 °F 85% 30.30 in 5.0 mi Calm Calm - N/A   Clear
4:55 AM 6.8 °F - 3.2 °F 85% 30.30 in 4.0 mi Calm Calm - N/A   Clear
5:15 AM 6.8 °F - 3.2 °F 85% 30.30 in 4.0 mi Calm Calm - N/A   Clear
5:35 AM 8.6 °F - 3.2 °F 79% 30.30 in 4.0 mi Calm Calm - N/A   Clear
6:15 AM 8.6 °F - 5.0 °F 85% 30.31 in 5.0 mi Calm Calm - N/A   Clear
6:35 AM 8.6 °F 2.0 °F 3.2 °F 79% 30.33 in 5.0 mi WSW 3.5 mph - N/A   Clear
6:55 AM 6.8 °F - 1.4 °F 79% 30.33 in 5.0 mi Calm Calm - N/A   Clear
7:15 AM 6.8 °F - 3.2 °F 85% 30.32 in 4.0 mi Calm Calm - N/A   Clear
7:35 AM 6.8 °F -2.0 °F 3.2 °F 85% 30.33 in 3.0 mi SW 4.6 mph - N/A   Clear
7:55 AM 5.0 °F -4.1 °F 1.4 °F 85% 30.33 in 3.0 mi SW 4.6 mph - N/A   Clear
8:15 AM 6.8 °F - 1.4 °F 79% 30.33 in 3.0 mi Calm Calm - N/A   Clear
8:35 AM 8.6 °F - 3.2 °F 79% 30.33 in 3.0 mi Calm Calm - N/A   Clear
8:55 AM 10.4 °F - 6.8 °F 85% 30.33 in 3.0 mi Calm Calm - N/A   Clear
9:15 AM 10.4 °F - 6.8 °F 85% 30.33 in 4.0 mi Calm Calm - N/A   Clear
9:35 AM 12.2 °F - 8.6 °F 85% 30.33 in 5.0 mi Calm Calm - N/A   Clear
9:55 AM 12.2 °F - 10.4 °F 92% 30.34 in 4.0 mi Calm Calm - N/A   Clear
10:15 AM 14.0 °F 8.2 °F 10.4 °F 86% 30.34 in 4.0 mi SSW 3.5 mph - N/A   Clear
10:35 AM 15.8 °F - 10.4 °F 79% 30.34 in 5.0 mi Calm Calm - N/A   Clear
10:55 AM 15.8 °F 8.6 °F 12.2 °F 86% 30.34 in 5.0 mi SSW 4.6 mph - N/A   Clear
11:15 AM 17.6 °F 8.2 °F 12.2 °F 79% 30.34 in 5.0 mi SW 6.9 mph - N/A   Clear
11:35 AM 19.4 °F 10.4 °F 14.0 °F 80% 30.33 in 5.0 mi SW 6.9 mph - N/A   Clear
11:55 AM 21.2 °F 12.6 °F 14.0 °F 74% 30.31 in 5.0 mi SSW 6.9 mph - N/A   Clear
12:15 PM 21.2 °F 13.6 °F 15.8 °F 80% 30.30 in 6.0 mi South 5.8 mph - N/A   Clear
12:35 PM 24.8 °F 16.1 °F 15.8 °F 69% 30.29 in 7.0 mi SSW 8.1 mph - N/A   Clear
12:55 PM 24.8 °F 16.9 °F 15.8 °F 69% 30.27 in 7.0 mi SSE 6.9 mph - N/A   Clear
1:15 PM 26.6 °F 19.1 °F 17.6 °F 69% 30.25 in 7.0 mi SSE 6.9 mph - N/A   Clear
1:35 PM 26.6 °F 18.2 °F 17.6 °F 69% 30.24 in 8.0 mi SSE 8.1 mph - N/A   Clear
1:55 PM 26.6 °F 18.2 °F 17.6 °F 69% 30.22 in 8.0 mi SE 8.1 mph - N/A   Clear
2:15 PM 26.6 °F 16.8 °F 17.6 °F 69% 30.21 in 10.0 mi SE 10.4 mph - N/A   Clear
2:35 PM 26.6 °F 17.5 °F 17.6 °F 69% 30.21 in 10.0 mi SSE 9.2 mph - N/A   Clear
2:55 PM 26.6 °F 16.8 °F 17.6 °F 69% 30.21 in 10.0 mi SSE 10.4 mph - N/A   Clear
3:15 PM 26.6 °F 18.2 °F 17.6 °F 69% 30.21 in 10.0 mi SSE 8.1 mph - N/A   Clear
3:35 PM 26.6 °F 17.5 °F 19.4 °F 74% 30.21 in 10.0 mi SSE 9.2 mph - N/A   Clear
3:55 PM 26.6 °F 17.5 °F 19.4 °F 74% 30.20 in 10.0 mi SSE 9.2 mph - N/A   Clear
4:15 PM 26.6 °F 19.1 °F 19.4 °F 74% 30.20 in 10.0 mi SSE 6.9 mph - N/A   Clear
4:35 PM 26.6 °F 16.2 °F 19.4 °F 74% 30.18 in 10.0 mi SSE 11.5 mph - N/A   Clear
4:55 PM 26.6 °F 18.2 °F 19.4 °F 74% 30.18 in 10.0 mi SSE 8.1 mph - N/A   Clear
5:15 PM 26.6 °F 16.8 °F 19.4 °F 74% 30.17 in 10.0 mi South 10.4 mph - N/A   Clear
5:35 PM 28.4 °F 18.5 °F 21.2 °F 74% 30.16 in 10.0 mi SSE 11.5 mph - N/A   Clear
5:55 PM 28.4 °F 18.5 °F 21.2 °F 74% 30.15 in 10.0 mi South 11.5 mph - N/A   Clear
6:15 PM 28.4 °F 18.5 °F 21.2 °F 74% 30.14 in 10.0 mi South 11.5 mph - N/A   Clear
6:35 PM 28.4 °F 18.5 °F 21.2 °F 74% 30.13 in 10.0 mi South 11.5 mph - N/A   Clear
6:55 PM 30.2 °F 18.5 °F 21.2 °F 69% 30.12 in 10.0 mi South 17.3 mph - N/A   Clear
7:15 PM 32.0 °F 20.1 °F 21.2 °F 64% 30.11 in 10.0 mi South 19.6 mph - N/A   Clear
7:35 PM 32.0 °F 20.8 °F 21.2 °F 64% 30.11 in 10.0 mi South 17.3 mph - N/A   Clear
7:55 PM 32.0 °F 21.2 °F 21.2 °F 64% 30.11 in 10.0 mi SSW 16.1 mph - N/A   Clear
8:15 PM 33.8 °F 22.8 °F 23.0 °F 65% 30.10 in 10.0 mi SSW 18.4 mph 24.2 mph N/A   Clear
8:35 PM 33.8 °F 23.9 °F 21.2 °F 60% 30.10 in 10.0 mi SSW 15.0 mph - N/A   Clear
8:55 PM 33.8 °F 23.2 °F 21.2 °F 60% 30.09 in 10.0 mi SSW 17.3 mph - N/A   Clear
9:15 PM 33.8 °F 23.2 °F 21.2 °F 60% 30.08 in 10.0 mi SSW 17.3 mph - N/A   Clear
9:55 PM 35.6 °F 24.2 °F 21.2 °F 56% 30.06 in 10.0 mi SSW 21.9 mph - N/A   Clear
10:15 PM 33.8 °F 22.2 °F 21.2 °F 60% 30.06 in 10.0 mi SSW 20.7 mph 25.3 mph N/A   Clear
10:35 PM 33.8 °F 22.8 °F 21.2 °F 60% 30.06 in 10.0 mi SSW 18.4 mph - N/A   Clear
10:55 PM 33.8 °F 22.8 °F 21.2 °F 60% 30.05 in 10.0 mi SSW 18.4 mph - N/A   Clear
11:15 PM 33.8 °F 22.5 °F 21.2 °F 60% 30.06 in 10.0 mi SSW 19.6 mph 26.5 mph N/A   Clear
11:35 PM 33.8 °F 22.5 °F 21.2 °F 60% 30.04 in 10.0 mi SSW 19.6 mph 25.3 mph N/A   Clear
11:55 PM 33.8 °F 22.8 °F 21.2 °F 60% 30.04 in 10.0 mi SW 18.4 mph 24.2 mph N/A   Clear